If you wish to contribute or participate in the discussions about articles you are invited to join SKYbrary as a registered user

San Diego International Airport

From SKYbrary Wiki
KSAN
Airport
ICAO: KSAN – IATA: SAN
Summary
Name San Diego International Airport
Region North America
Territory United States US.gif
Location San Diego, California
Serving San Diego County
Elevation 5.182 m17 ft5.182 m
Coordinates 32° 44' 0.2546", -117° 11' 25.5057"
Runways
Designator Length Width Surface ROPS
9/27 2865 m9,399.606 ft 61 m200.131 ft PEM yes/yes
METAR
Observation KSAN 180351Z 00000KT 10SM SCT008 BKN013 18/16 A3010 RMK AO2 SLP192 T01830156
Station San Diego, San Diego International-Lindbergh Field
Date/Time 18 November 2017 03:51:00
Wind direction
Wind speed 00 kts
Lowest cloud amount scattered clouds
Temperature 18.3°C
Dew point 15.6°C
Humidity 84%
QNH hPa
Weather condition n/a

RE
Tag(s) Engineered Materials Arresting System
WX
Tag(s) Fog
EMAS equipped
Rwy(s) 27

Description

International airport serving San Diego, California, USA.

Climatology

San Diego enjoys mild, sunny weather throughout the year. Since the San Diego area straddles areas of Mediterranean climate (Csa) to the north, and Semi-arid climate (BSh) to the south and east, the climate is often referred to as "Mediterranean" or "arid-mediterranean". Fog is common in May and June.

Maps

Terrain

Loading map...

Airport Layout

Loading map...


Accidents & Serious Incidents at or in vicinity of KSAN

None on SKYbrary